[[{"header":{"parameterUnit":"m.s-1","parameterCategory":1,"la1":30.2991,"la2":30.254,"lo1":-89.0895,"lo2":-89.0444,"dy":0.0017,"dx":0.0017,"nx":28,"ny":28,"refTime":"2023-08-11T03:00:00:Z","depth":0,"parameterNumber":2,"parameterNumberName":"U-component_of_WINDS"},"data":[0,0,0,0,0,0,0,0,0,0,0,0,0,0,0,0,0,0,0,0,0,0,0,0,0,0,0,0,0,0,0,0,0,0,0,0,0,0,0,0,0,0,0,0,0,0,0,0,0,0,0,0,0,0,0,0,0,0,4.5915,4.5916,0,4.6061,4.6062,4.6064,4.6007,4.6004,4.6001,4.5997,4.6147,4.6154,4.6161,0,0,0,0,0,0,0,0,0,0,0,0,0,4.5584,4.5591,4.5915,4.5916,4.5918,4.6061,4.6063,4.6065,4.6008,4.6004,4.6,4.5996,4.6145,4.6154,4.6162,0,0,0,0,0,0,0,0,0,0,0,0,0,4.5729,4.5593,4.5914,4.5907,4.5908,4.606,4.6063,4.6065,4.6009,4.6004,4.5999,4.5994,4.6142,4.6153,4.6163,4.6331,0,0,4.6196,4.6201,0,0,0,0,0,0,0,0,4.5721,4.5741,4.5906,4.5908,4.5909,4.6011,4.6001,4.6154,4.601,4.5971,4.5997,4.5991,4.6106,4.6119,4.6158,4.6338,4.6345,4.6197,4.6204,4.6208,4.6211,0,0,0,0,0,0,0,4.5711,4.5734,4.5972,4.5909,4.5911,4.5896,4.5911,4.603,4.6065,4.5974,4.597,4.5988,4.6106,4.6148,4.6161,4.6347,4.6197,4.6206,4.6213,4.6217,4.6668,4.6674,0,0,0,0,0,0,4.57,4.5726,4.5968,4.5977,4.58,4.5906,4.5923,4.5983,4.6064,4.6071,4.5992,4.5985,4.6132,4.6149,4.6166,4.6365,4.6208,4.6218,4.6224,4.6663,4.667,4.6676,0,0,0,0,0,0,4.5694,4.5723,4.5962,4.5851,4.588,4.5917,4.5985,4.5989,4.6031,4.6078,4.6083,4.6029,4.6129,4.6151,4.629,4.6369,4.6223,4.6233,4.6656,4.6665,4.6673,4.6766,0,0,0,0,0,0,4.5684,4.572,4.5785,4.5853,4.5886,4.6084,4.5991,4.5995,4.6049,4.6041,4.6113,4.6121,4.6126,4.6274,4.63,4.6382,4.6241,4.6649,4.666,4.667,4.6756,4.6776,4.6794,0,0,0,0,0,4.5673,4.5807,4.5789,4.5818,4.5968,4.6089,4.6108,4.6112,4.6056,4.6121,4.615,4.6118,4.6357,4.6289,4.6318,4.6404,4.6644,4.6657,4.6669,4.6747,4.6772,4.6794,0,0,0,0,0,0,4.5749,4.5816,4.5796,4.5956,4.6017,4.6079,4.6161,4.6139,4.6217,4.6206,4.6207,4.6224,4.6366,4.6399,4.6322,4.6568,4.6492,4.6511,4.6541,4.6566,4.6584,4.6572,4.625,0,0,0,0,0,4.5784,4.5877,4.593,4.6066,4.6097,4.6124,4.6177,4.6174,4.6237,4.6263,4.6303,4.6365,4.6453,4.6512,4.6596,4.6761,4.6774,4.6834,4.6853,4.6869,4.6884,4.697,4.6996,4.6717,4.6716,4.6716,0,0,4.5858,4.5906,4.5964,4.6082,4.6129,4.6223,4.6146,4.625,4.632,4.6279,4.6411,4.6442,4.6512,4.6663,4.6732,4.6695,4.6964,4.6885,4.6896,4.6904,4.6986,4.7012,4.7035,4.6725,4.6724,4.6722,0,0,4.604,4.6087,4.6203,4.6251,4.6323,4.6339,4.6367,4.6432,4.6451,4.6584,4.6554,4.6636,4.679,4.684,4.6885,4.7083,4.7055,4.7111,4.721,4.7294,4.7315,4.7335,4.7402,4.7427,4.7127,4.7127,4.7127,0,4.6123,4.6265,4.6266,4.6372,4.6423,4.639,4.6506,4.6553,4.6649,4.6684,4.6642,4.6831,4.6876,4.7036,4.7084,4.7124,4.7154,4.7102,4.7312,4.7332,4.735,4.7414,4.744,4.7133,4.7133,4.7132,4.7131,0,4.6361,4.6459,4.6545,4.6636,4.6698,4.6809,4.6826,4.6888,4.688,4.69,4.7034,4.7086,4.7179,4.7217,4.7212,4.7377,4.7351,4.7311,4.7233,4.7383,4.7443,4.7468,4.7142,4.714,4.7138,4.7136,0,0,4.6595,4.6684,4.6716,4.6755,4.683,4.6906,4.7015,4.7104,4.7156,4.7223,4.7312,4.7441,4.7403,4.7455,4.7454,4.7528,4.7677,4.7478,4.748,4.751,4.7858,4.7886,4.7915,4.766,4.7665,4.7669,4.7851,0,4.6781,4.697,4.6974,4.7147,4.7236,4.7205,4.7299,4.7354,4.7376,4.7454,4.7478,4.7569,4.7514,4.7544,4.7616,4.7644,4.7747,4.7631,4.7741,4.7745,4.7721,4.7947,4.7977,4.8147,4.7875,4.7879,4.7882,0,4.7023,4.7095,4.7277,4.7336,4.7374,4.7458,4.7539,4.7615,4.7676,4.7687,4.7743,4.773,4.7839,4.776,4.7909,4.783,4.7875,4.7895,4.7902,4.791,4.7821,4.7958,4.8202,4.8226,4.792,4.7917,4.7914,0,4.7171,4.7314,4.7441,4.7476,4.7549,4.7609,4.7642,4.7698,4.7751,4.7822,4.7856,4.7939,4.7984,4.8048,4.8057,4.8,4.8205,4.8128,4.8215,4.8215,4.8258,4.8255,4.8509,4.8293,4.8292,4.8292,4.8291,0,4.7376,4.7488,4.7508,4.7585,4.7708,4.7711,4.7833,4.7862,4.7912,4.7993,4.7972,4.8049,4.8058,4.8137,4.8145,4.8264,4.8286,4.8296,4.8296,4.8296,4.8294,4.8324,4.8311,4.8298,4.8297,4.8296,4.8294,0,4.7562,4.758,4.7715,4.7772,4.7789,4.7877,4.7926,4.7999,4.8018,4.8121,4.8145,4.8175,4.8267,4.8283,4.8392,4.8397,4.8538,4.8529,4.8517,4.8515,4.86,4.859,4.888,4.8917,4.8679,4.8681,4.8683,0,4.769,4.7775,4.784,4.7893,4.7929,4.8014,4.8067,4.8073,4.8129,4.8203,4.8267,4.8356,4.8427,4.8575,4.8606,4.8688,4.8677,4.8773,4.869,4.8686,4.8675,4.8668,4.8675,4.8788,4.8791,4.8793,4.8795,0,4.7914,4.7918,4.7996,4.8076,4.8139,4.8203,4.8262,4.8307,4.832,4.8383,4.8476,4.8531,4.864,4.8728,4.8809,4.8842,4.882,4.8821,4.8845,4.8844,4.8833,4.8836,4.8558,4.8814,4.8812,4.8811,4.881,4.8809,4.8073,4.8145,4.8202,4.8288,4.8333,4.8389,4.8459,4.8486,4.8563,4.8652,4.8651,4.8751,4.8808,4.8914,4.8953,4.9031,4.9,4.9036,4.9044,4.9052,4.9058,4.8823,4.9046,4.9046,4.9045,4.9045,4.9044,0,4.8293,4.8328,4.8407,4.849,4.8557,4.853,4.8594,4.8652,4.874,4.8795,4.8865,4.897,4.9054,4.9091,4.9173,4.9229,4.922,4.925,4.9244,4.9251,4.9083,4.9052,4.9255,4.9255,4.9255,4.9255,4.9255,4.9255,4.8416,4.8535,4.8546,4.8687,4.8721,4.8818,4.8857,4.8907,4.895,4.9068,4.9137,4.9161,4.9208,4.9293,4.9368,4.9377,4.9407,4.944,4.9444,4.9285,4.9264,4.9243,4.9214,4.9448,4.9448,4.9606,4.9607,4.9608]},{"header":{"parameterUnit":"m.s-1","parameterCategory":1,"la1":30.2991,"la2":30.254,"lo1":-89.0895,"lo2":-89.0444,"dy":0.0017,"dx":0.0017,"nx":28,"ny":28,"refTime":"2023-08-11T03:00:00:Z","depth":0,"parameterNumber":3,"parameterNumberName":"V-component_of_WINDS"},"data":[0,0,0,0,0,0,0,0,0,0,0,0,0,0,0,0,0,0,0,0,0,0,0,0,0,0,0,0,0,0,0,0,0,0,0,0,0,0,0,0,0,0,0,0,0,0,0,0,0,0,0,0,0,0,0,0,0,0,1.4099,1.4099,0,1.4082,1.4082,1.4082,1.4033,1.4032,1.4031,1.403,1.4013,1.4013,1.4014,0,0,0,0,0,0,0,0,0,0,0,0,0,1.4086,1.4086,1.4099,1.4099,1.4098,1.4083,1.4082,1.4082,1.4033,1.4032,1.4031,1.4029,1.4013,1.4013,1.4014,0,0,0,0,0,0,0,0,0,0,0,0,0,1.4083,1.4086,1.4099,1.4072,1.407,1.4083,1.4082,1.4082,1.4033,1.4032,1.403,1.4029,1.4012,1.4013,1.4014,1.4052,0,0,1.4017,1.4017,0,0,0,0,0,0,0,0,1.4083,1.4083,1.4076,1.4074,1.4071,1.4058,1.4071,1.4072,1.4034,1.4047,1.403,1.4028,1.4029,1.4029,1.4029,1.4051,1.405,1.4017,1.4017,1.4018,1.4018,0,0,0,0,0,0,0,1.4083,1.4084,1.4092,1.4076,1.4073,1.406,1.4058,1.4071,1.4047,1.4046,1.4042,1.4041,1.4027,1.4028,1.4028,1.405,1.4017,1.4017,1.4018,1.4018,1.4099,1.4101,0,0,0,0,0,0,1.4087,1.4084,1.4093,1.4092,1.4073,1.4062,1.4059,1.4064,1.4047,1.4043,1.4042,1.4039,1.4028,1.4027,1.4027,1.4069,1.4017,1.4018,1.4019,1.4097,1.4099,1.4101,0,0,0,0,0,0,1.4087,1.4089,1.4093,1.4087,1.4087,1.4064,1.4069,1.4064,1.4065,1.4045,1.404,1.4048,1.4026,1.4026,1.4045,1.4068,1.4019,1.4019,1.4096,1.4098,1.41,1.4153,0,0,0,0,0,0,1.4087,1.4089,1.4104,1.4088,1.4087,1.4113,1.4071,1.4065,1.4067,1.4062,1.4048,1.4045,1.4025,1.4044,1.4046,1.4068,1.402,1.4093,1.4097,1.41,1.4149,1.4157,1.4164,0,0,0,0,0,1.4087,1.4119,1.4105,1.4106,1.4105,1.4114,1.4114,1.4091,1.4069,1.4083,1.4069,1.4045,1.4065,1.4047,1.4048,1.4071,1.4092,1.4096,1.4099,1.4146,1.4156,1.4164,0,0,0,0,0,0,1.4139,1.4117,1.41,1.4129,1.4123,1.4106,1.4123,1.4102,1.4103,1.4098,1.4069,1.4067,1.4089,1.4082,1.4062,1.4105,1.4074,1.4079,1.4109,1.4118,1.4125,1.4126,1.4021,0,0,0,0,0,1.4154,1.4163,1.4143,1.417,1.4168,1.4146,1.4149,1.4132,1.4125,1.4123,1.4111,1.4105,1.4109,1.4113,1.4117,1.4148,1.4143,1.4164,1.4171,1.4177,1.4181,1.4195,1.4203,1.4113,1.4113,1.4113,0,0,1.4184,1.4173,1.4181,1.418,1.4174,1.4184,1.4145,1.4157,1.4164,1.4125,1.4142,1.4132,1.4124,1.4149,1.4159,1.4143,1.4205,1.4182,1.4187,1.4187,1.42,1.4208,1.4216,1.4116,1.4116,1.4115,0,0,1.4245,1.4238,1.4259,1.4253,1.4244,1.4229,1.4234,1.4219,1.4211,1.4228,1.4198,1.4205,1.4215,1.4209,1.4208,1.4264,1.4242,1.4266,1.4304,1.4318,1.4325,1.4331,1.435,1.4358,1.427,1.427,1.4271,0,1.4284,1.4298,1.4272,1.4286,1.4286,1.425,1.4271,1.4267,1.4259,1.426,1.4242,1.4251,1.4243,1.4266,1.4279,1.428,1.4284,1.4268,1.4326,1.4332,1.4338,1.4355,1.4363,1.4273,1.4273,1.4273,1.4272,0,1.4346,1.4355,1.4373,1.4367,1.4368,1.4386,1.4362,1.4367,1.4349,1.4335,1.4351,1.434,1.434,1.4344,1.4327,1.4363,1.4353,1.4332,1.43,1.435,1.4366,1.4372,1.4278,1.4277,1.4276,1.4275,0,0,1.444,1.4417,1.4424,1.442,1.4407,1.4413,1.4428,1.4428,1.4432,1.4427,1.4438,1.4446,1.4425,1.4423,1.4405,1.4418,1.4461,1.4394,1.4393,1.4406,1.4499,1.4516,1.4524,1.4446,1.4447,1.4448,1.45,0,1.4496,1.452,1.4497,1.4525,1.4533,1.4499,1.4511,1.4504,1.4492,1.4496,1.4481,1.4487,1.4459,1.4458,1.4469,1.4454,1.448,1.445,1.4455,1.4456,1.4458,1.4533,1.455,1.4599,1.4506,1.4507,1.4508,0,1.4566,1.4564,1.4593,1.4576,1.4579,1.459,1.4587,1.4592,1.4582,1.4572,1.4569,1.4547,1.4559,1.4528,1.4544,1.4524,1.4525,1.4518,1.4519,1.4518,1.4485,1.4533,1.4614,1.4622,1.4518,1.4517,1.4516,0,1.463,1.4635,1.4652,1.465,1.4631,1.464,1.4632,1.4621,1.4622,1.4619,1.4618,1.4617,1.4616,1.4615,1.4592,1.4572,1.461,1.4578,1.4601,1.4602,1.4611,1.461,1.4693,1.4612,1.4612,1.4612,1.4612,0,1.4695,1.4714,1.4681,1.4692,1.4711,1.4684,1.4704,1.4693,1.4683,1.469,1.466,1.4668,1.4637,1.4641,1.4624,1.4638,1.4639,1.463,1.4625,1.4632,1.4633,1.4632,1.4628,1.4614,1.4614,1.4613,1.4613,0,1.477,1.4749,1.4765,1.4746,1.4741,1.4756,1.4739,1.4748,1.4732,1.4742,1.4743,1.4719,1.4721,1.4699,1.4697,1.4685,1.4708,1.4698,1.4711,1.4708,1.4732,1.473,1.4816,1.4825,1.474,1.4741,1.4741,0,1.4813,1.4827,1.4808,1.4811,1.4804,1.4809,1.4809,1.4782,1.4784,1.4773,1.4783,1.4783,1.4782,1.4788,1.477,1.4768,1.4757,1.4787,1.4756,1.4763,1.4756,1.4755,1.4756,1.4793,1.4794,1.4795,1.4796,0,1.4891,1.4879,1.488,1.4878,1.4879,1.4875,1.487,1.4874,1.4844,1.4847,1.4849,1.4848,1.4846,1.4846,1.4841,1.4832,1.4809,1.4806,1.4811,1.4818,1.4825,1.4821,1.4728,1.4804,1.4803,1.4802,1.4802,1.4802,1.495,1.496,1.4948,1.495,1.4943,1.4938,1.4945,1.493,1.4932,1.4928,1.4912,1.4917,1.4905,1.4895,1.4889,1.4891,1.4877,1.4884,1.4886,1.4888,1.4892,1.4825,1.489,1.489,1.489,1.489,1.489,0,1.5026,1.5016,1.5018,1.5011,1.5012,1.499,1.4982,1.4984,1.4989,1.498,1.498,1.4981,1.4981,1.4963,1.496,1.4966,1.4955,1.4966,1.4965,1.4963,1.4906,1.4902,1.4974,1.4974,1.4974,1.4974,1.4974,1.4974,1.5065,1.508,1.5067,1.5077,1.5067,1.5071,1.5069,1.5064,1.5056,1.506,1.5059,1.5047,1.5034,1.503,1.5028,1.5022,1.5022,1.5037,1.5028,1.4975,1.4967,1.4959,1.4955,1.5037,1.5038,1.5084,1.5084,1.5085]}]]